Location: Izdebno
(52.6670°N, 16.2170°E)
Time: 11:06:48
(UTC+02:00)

A-11 Canister half - Pass Details

Date: 23 February 2024
Orbit: 1513 x 1686 km, 47.2° (Epoch: 24 April)

Event Time Altitude Azimuth Distance (km) Brightness Sun altitude
Exits shadow 06:22:02 - 271° (W) 4,267 10.6 -5.9°
Reaches altitude 10° 06:23:11 10° 270° (W) 3,910 10.5 -5.7°
Maximum altitude 06:32:54 60° 194° (SSW) 1,820 9.4 -4.3°
Drops below altitude 10° 06:42:16 10° 118° (ESE) 3,773 12.7 -2.9°
Sets 06:45:20 0° 115° (ESE) 4,734 13.8 -2.5°
